This demonstration page uses our WeatherBlox Daily Observations layout. Learn more.

Left ArrowRight Arrow

38.89511, -77.03637

Hourly Observations for July 16, 2015

Temp ( °F °C ) Dew Point ( °F °C ) Humidity (%) Winds ( mph kmh ) Pressure ( in mb ) Visibility ( mi km ) Precip ( " mm )
12:52 am 00:52 Clear 72 22.2 59 15 64 64 N 14 22 29.93 1014 10 16 N/A
1:52 am 01:52 Mostly Clear 71 21.7 55 12.8 57 57 NNE 13 20 29.95 1014 10 16 N/A
2:52 am 02:52 Mostly Clear 69 20.6 55 12.8 61 61 N 14 22 29.96 1015 10 16 N/A
3:52 am 03:52 Partly Cloudy 68 20 54 12.2 61 61 NNW 12 19 29.98 1015 10 16 N/A
4:52 am 04:52 Mostly Cloudy 68 20 53 11.7 59 59 N 12 19 29.98 1015 10 16 N/A
5:52 am 05:52 Mostly Cloudy 67 19.4 53 11.7 61 61 NNW 15 24 30.01 1016 10 16 N/A
6:30 am 06:30 Partly Cloudy 66 19 54 12 64 64 NNW 13 20 30.03 1017 10 16 N/A
6:52 am 06:52 Partly Cloudy 66 18.9 53 11.7 63 63 N 12 19 30.02 1017 10 16 N/A
7:52 am 07:52 Mostly Sunny 69 20.6 54 12.2 59 59 N 8 13 30.03 1017 10 16 N/A
8:52 am 08:52 Mostly Sunny 71 21.7 55 12.8 57 57 NNE 10 17 30.05 1018 10 16 N/A
9:52 am 09:52 Mostly Sunny 74 23.3 55 12.8 52 52 NE 9 15 30.05 1018 10 16 N/A
10:52 am 10:52 Sunny 77 25 56 13.3 48 48 NNE 7 11 30.06 1018 10 16 N/A
11:52 am 11:52 Mostly Sunny 79 26.1 54 12.2 42 42 N N/A 30.06 1018 10 16 N/A
12:52 pm 12:52 Mostly Sunny 82 27.8 55 12.8 40 40 N N/A 30.06 1018 10 16 N/A
1:52 pm 13:52 Partly Cloudy 83 28.3 56 13.3 40 40 ENE 5 7 30.05 1018 10 16 N/A
2:52 pm 14:52 Partly Cloudy 84 28.9 58 14.4 41 41 VRB 3 6 30.04 1017 10 16 N/A
3:52 pm 15:52 Partly Cloudy 85 29.4 58 14.4 40 40 N N/A 30.04 1017 10 16 N/A
4:52 pm 16:52 Partly Cloudy 85 29.4 57 13.9 39 39 VRB 5 7 30.04 1017 10 16 N/A
5:52 pm 17:52 Partly Cloudy 86 30 56 13.3 36 36 N N/A 30.02 1017 10 16 N/A
6:52 pm 18:52 Partly Cloudy 82 27.8 62 16.7 51 51 ESE 8 13 30.03 1017 10 16 N/A
7:52 pm 19:52 Partly Cloudy 79 26.1 65 18.3 62 62 SE 8 13 30.04 1017 10 16 N/A
8:52 pm 20:52 Partly Cloudy 77 25 62 16.7 60 60 SSE 5 7 30.05 1018 9 14 N/A
9:52 pm 21:52 Mostly Clear 77 25 59 15 54 54 S 3 6 30.06 1018 10 16 N/A
10:52 pm 22:52 Mostly Clear 75 23.9 60 15.6 60 60 S 3 6 30.07 1018 10 16 N/A
11:52 pm 23:52 Mostly Clear 75 23.9 61 16.1 62 62 SSE 3 6 30.07 1018 10 16 N/A

Powered by AerisWeather